KD2ZLA Weather Reports


time (UTC)temp
C
wind
direction
speed
KPH
gust
KPH
rain 1hr
cm
rain 24hr
cm
rain mn
cm
humidity
%
barometer
mb
20260507020953 6 287 0.0 4.8 0.00 1.14 1.14 94 1009.7
20260507020450 6 235 3.2 3.2 0.00 1.14 1.14 94 1009.7
20260507015947 6 195 0.0 3.2 0.00 1.14 1.14 94 1009.8
20260507015445 6 207 0.0 3.2 0.00 1.14 1.14 94 1009.6
20260507014942 6 245 1.6 1.6 0.00 1.14 1.14 93 1009.8
20260507014438 6 209 3.2 3.2 0.00 1.14 1.14 93 1009.9
20260507013935 6 226 0.0 3.2 0.00 1.14 1.14 93 1009.7
20260507013432 6 218 0.0 4.8 0.00 1.14 1.14 93 1009.6
20260507012929 6 167 0.0 1.6 0.00 1.14 1.14 92 1009.6
20260507012426 6 180 0.0 1.6 0.00 1.14 1.14 92 1009.5
20260507011922 6 205 0.0 1.6 0.00 1.14 1.14 92 1009.6
20260507011420 6 219 0.0 3.2 0.00 1.14 1.14 92 1009.7
20260507010919 6 77 1.6 1.6 0.00 1.14 1.14 92 1009.6
20260507010415 6 55 0.0 1.6 0.00 1.14 1.14 91 1009.5
20260507005912 6 159 0.0 1.6 0.00 1.14 1.14 91 1009.6
20260507005409 6 350 0.0 0.0 0.00 1.14 1.14 91 1009.4
20260507004906 6 64 0.0 3.2 0.00 1.14 1.14 91 1009.4
20260507004403 6 135 0.0 0.0 0.00 1.14 1.14 90 1009.3
20260507003900 7 89 0.0 1.6 0.00 1.14 1.14 90 1009.4
20260507003355 7 253 0.0 3.2 0.00 1.14 1.14 89 1009.5
20260507002851 7 345 0.0 1.6 0.00 1.14 1.14 89 1009.4
20260507002347 7 240 0.0 4.8 0.00 1.14 1.14 89 1009.3
20260507001844 7 214 3.2 3.2 0.00 1.14 1.14 89 1009.3
20260507001341 7 310 0.0 3.2 0.00 1.14 1.14 89 1009.4
20260507000837 7 323 0.0 3.2 0.00 1.14 1.14 89 1009.1
20260507000335 7 52 1.6 3.2 0.00 1.14 1.14 89 1009.1
20260506235830 7 243 1.6 4.8 0.00 1.14 1.14 88 1009.1
20260506235326 7 38 0.0 1.6 0.00 1.14 1.14 88 1009.2
20260506234822 7 306 0.0 3.2 0.00 1.14 1.14 88 1009.1
20260506234320 7 235 0.0 0.0 0.00 1.14 1.14 88 1008.8
20260506233818 7 231 1.6 3.2 0.00 1.14 1.14 88 1008.9
20260506233314 7 44 0.0 1.6 0.00 1.14 1.14 87 1008.9
20260506232811 7 286 0.0 0.0 0.00 1.14 1.14 87 1008.9
20260506232306 7 20 0.0 3.2 0.00 1.14 1.14 86 1008.9
20260506231803 7 358 0.0 1.6 0.00 1.14 1.14 86 1009.1
20260506231301 7 315 0.0 1.6 0.00 1.14 1.14 86 1008.8
20260506230758 7 76 0.0 3.2 0.00 1.14 1.14 85 1008.7
20260506230255 7 48 0.0 0.0 0.00 1.14 1.14 84 1008.6
20260506225751 7 146 3.2 3.2 0.00 1.14 1.14 84 1008.6
20260506225248 7 203 1.6 3.2 0.00 1.14 1.14 84 1008.8
20260506224744 7 252 3.2 4.8 0.00 1.14 1.14 83 1008.7
20260506224242 7 292 1.6 3.2 0.00 1.14 1.14 83 1008.8
20260506223738 7 23 1.6 3.2 0.00 1.14 1.14 83 1008.8
20260506223234 7 269 0.0 4.8 0.00 1.14 1.14 82 1008.6
20260506222731 7 310 3.2 4.8 0.00 1.14 1.14 81 1008.7
20260506222226 7 307 3.2 3.2 0.00 1.14 1.14 82 1008.8
20260506221725 7 210 1.6 3.2 0.00 1.14 1.14 81 1008.6
20260506221223 8 31 0.0 3.2 0.00 1.14 1.14 80 1008.5
20260506220720 8 38 1.6 3.2 0.00 1.14 1.14 79 1008.5
20260506220214 8 43 4.8 6.4 0.00 1.14 1.14 78 1008.4
20260506215711 8 73 1.6 3.2 0.00 1.14 1.14 78 1008.2
20260506215207 8 38 3.2 4.8 0.00 1.14 1.14 79 1008.4
20260506214703 8 55 4.8 4.8 0.00 1.14 1.14 78 1008.5
20260506214201 8 55 1.6 3.2 0.00 1.14 1.14 78 1008.6
20260506213659 7 89 1.6 4.8 0.00 1.14 1.14 79 1008.6
20260506213156 7 88 6.4 8.0 0.00 1.14 1.14 80 1008.5
20260506212653 7 89 4.8 9.7 0.00 1.14 1.14 79 1008.6
20260506212148 7 77 9.7 9.7 0.00 1.14 1.14 80 1008.5
20260506211644 7 47 6.4 9.7 0.00 1.14 1.14 81 1008.7
20260506211141 7 79 6.4 8.0 0.00 1.14 1.14 83 1008.7
20260506210638 7 34 6.4 8.0 0.00 1.14 1.14 83 1008.7
20260506210134 7 80 4.8 6.4 0.00 1.14 1.14 83 1008.7
20260506205631 7 54 6.4 9.7 0.00 1.14 1.14 82 1008.5
20260506205126 7 57 8.0 9.7 0.00 1.14 1.14 82 1008.5
20260506204624 8 59 6.4 6.4 0.00 1.14 1.14 84 1008.6
20260506204121 8 46 4.8 4.8 0.00 1.14 1.14 86 1008.4
20260506203619 7 85 4.8 6.4 0.00 1.14 1.14 85 1008.4
20260506203115 7 68 6.4 9.7 0.00 1.14 1.14 84 1008.6
20260506202614 7 42 6.4 6.4 0.00 1.14 1.14 84 1008.5
20260506202109 7 43 6.4 12.9 0.00 1.14 1.14 84 1008.2
20260506201607 7 72 8.0 9.7 0.00 1.14 1.14 86 1008.2
20260506201103 7 91 4.8 6.4 0.00 1.14 1.14 85 1008.4
20260506200600 7 59 6.4 9.7 0.00 1.14 1.14 87 1008.3
20260506200057 7 67 8.0 9.7 0.00 1.14 1.14 87 1008.2
20260506195553 7 86 6.4 6.4 0.00 1.14 1.14 86 1008.4
20260506195049 7 67 8.0 9.7 0.00 1.14 1.14 87 1008.5
20260506194548 7 87 6.4 6.4 0.00 1.14 1.14 88 1008.6
20260506194043 7 94 6.4 6.4 0.00 1.14 1.14 88 1008.9
20260506193541 7 69 8.0 8.0 0.00 1.14 1.14 88 1008.7
20260506193038 7 49 6.4 6.4 0.00 1.14 1.14 89 1008.5
20260506192535 7 86 4.8 9.7 0.00 1.14 1.14 90 1008.3
20260506192031 7 82 3.2 8.0 0.00 1.14 1.14 91 1008.2
20260506191528 7 84 6.4 9.7 0.00 1.14 1.14 91 1008.5
20260506191024 7 85 4.8 9.7 0.00 1.14 1.14 91 1008.7
20260506190521 7 95 4.8 9.7 0.00 1.14 1.14 91 1008.8
20260506190019 7 94 4.8 12.9 0.00 1.14 1.14 91 1008.8
20260506185515 7 40 9.7 16.1 0.00 1.14 1.14 91 1008.7
20260506185012 7 97 6.4 8.0 0.00 1.14 1.14 91 1008.6
20260506184509 7 95 6.4 8.0 0.00 1.14 1.14 91 1008.6
20260506184006 6 84 4.8 11.3 0.00 1.14 1.14 90 1008.8
20260506183502 6 94 6.4 11.3 0.00 1.14 1.14 90 1008.8
20260506182959 6 77 9.7 12.9 0.00 1.14 1.14 90 1008.8
20260506182456 6 75 6.4 17.7 0.00 1.14 1.14 89 1008.7
20260506181953 6 82 6.4 16.1 0.00 1.14 1.14 89 1008.5
20260506181451 6 86 9.7 14.5 0.00 1.14 1.14 90 1008.8
20260506180948 6 72 9.7 12.9 0.00 1.14 1.14 90 1008.6
20260506180444 6 85 6.4 9.7 0.00 1.14 1.14 90 1008.7
20260506175941 6 92 11.3 14.5 0.00 1.14 1.14 90 1008.4
20260506175438 7 69 8.0 12.9 0.00 1.14 1.14 90 1008.7
20260506174934 7 86 6.4 8.0 0.05 1.14 1.14 90 1008.4
20260506174432 7 83 4.8 12.9 0.05 1.14 1.14 90 1008.4
20260506173929 6 88 4.8 11.3 0.00 1.14 1.14 90 1008.3
20260506173426 6 88 6.4 11.3 0.00 1.14 1.14 90 1008.5
20260506172923 7 91 9.7 14.5 0.00 1.14 1.14 90 1008.6
20260506172420 7 92 3.2 8.0 0.00 1.14 1.14 91 1008.6
20260506171917 6 98 9.7 11.3 0.00 1.14 1.14 90 1008.5
20260506171414 6 93 6.4 14.5 0.00 1.14 1.14 90 1008.5
20260506170912 6 102 8.0 17.7 0.00 1.14 1.14 89 1008.7
20260506170408 6 93 6.4 8.0 0.00 1.14 1.14 89 1008.6
20260506165907 7 73 11.3 19.3 0.00 1.14 1.14 90 1008.7
20260506165405 7 71 8.0 14.5 0.05 1.14 1.14 91 1008.7
20260506164901 6 95 8.0 16.1 0.05 1.14 1.14 91 1008.8
20260506164357 6 107 8.0 12.9 0.00 1.14 1.14 93 1009.1
20260506163856 6 101 9.7 14.5 0.05 1.14 1.14 92 1009.2
20260506163349 6 68 11.3 17.7 0.00 1.12 1.12 92 1009.4
20260506162845 6 67 8.0 12.9 0.05 1.12 1.12 92 1009.3
20260506162343 6 45 9.7 17.7 0.13 1.12 1.12 92 1009.3
20260506161840 6 87 6.4 9.7 0.05 1.12 1.12 93 1009.4
20260506161338 6 102 8.0 9.7 0.00 1.09 1.09 93 1009.3
20260506160835 6 102 9.7 14.5 0.05 1.09 1.09 93 1009.4
20260506160332 6 78 8.0 12.9 0.05 1.09 1.09 93 1009.4
20260506155831 6 77 6.4 14.5 0.05 1.09 1.09 93 1009.2
20260506155327 6 100 6.4 11.3 0.05 1.09 1.09 93 1009.4
20260506153439 6 51 3.2 6.4 0.05 1.07 1.07 94 1009.3
20260506152937 6 98 4.8 6.4 0.05 1.07 1.07 94 1009.5
20260506152433 6 87 9.7 9.7 0.00 1.07 1.07 94 1009.4
20260506151932 6 74 4.8 11.3 0.05 1.07 1.07 94 1009.2
20260506151428 6 91 6.4 9.7 0.05 1.07 1.07 95 1009.2
20260506150926 6 63 11.3 11.3 0.05 1.04 1.04 95 1009.1
20260506150422 6 54 9.7 12.9 0.13 1.04 1.04 95 1009.2
20260506145919 6 95 6.4 11.3 0.05 1.04 1.04 95 1009.3
20260506145415 6 65 4.8 8.0 0.05 1.04 1.04 95 1009.3
20260506144913 6 77 6.4 11.3 0.13 1.04 1.04 95 1009.5
20260506144409 6 61 4.8 9.7 0.18 1.02 1.02 95 1009.3
20260506143908 6 99 8.0 11.3 0.13 0.99 0.99 95 1009.4
20260506143404 6 85 8.0 11.3 0.05 0.99 0.99 95 1009.4
20260506142902 6 85 8.0 12.9 0.05 0.99 0.99 95 1009.4
20260506142400 6 70 6.4 8.0 0.05 0.97 0.97 95 1009.5
20260506141858 6 89 4.8 9.7 0.13 0.97 0.97 95 1009.2
20260506141356 6 94 6.4 6.4 0.18 0.97 0.97 95 1009.1
20260506140854 6 101 6.4 8.0 0.13 0.94 0.94 95 1009.5
20260506140350 5 77 3.2 8.0 0.05 0.91 0.91 94 1009.5
20260506135848 5 91 3.2 6.4 0.18 0.91 0.91 94 1009.3
20260506135344 5 82 6.4 6.4 0.13 0.89 0.89 94 1009.4
20260506134840 5 81 4.8 6.4 0.13 0.89 0.89 94 1009.5
20260506134337 5 84 4.8 6.4 0.13 0.89 0.89 94 1009.4
20260506133834 5 87 4.8 9.7 0.13 0.86 0.86 94 1009.4
20260506133331 5 89 4.8 6.4 0.13 0.86 0.86 94 1009.4
20260506132827 5 67 6.4 8.0 0.13 0.86 0.86 94 1009.3
20260506132325 5 73 4.8 8.0 0.13 0.84 0.84 94 1009.2
20260506131823 5 61 4.8 6.4 0.13 0.84 0.84 94 1009.3
20260506131319 5 86 4.8 8.0 0.13 0.81 0.81 94 1009.4
20260506130816 5 81 9.7 9.7 0.13 0.81 0.81 94 1009.3
20260506130312 5 85 9.7 12.9 0.13 0.79 0.79 94 1009.4
20260506125810 5 82 6.4 11.3 0.13 0.79 0.79 94 1009.2
20260506125308 5 88 4.8 11.3 0.05 0.76 0.76 94 1009.4
20260506124807 5 65 8.0 8.0 0.05 0.76 0.76 94 1009.3
20260506124303 5 67 6.4 8.0 0.18 0.76 0.76 94 1009.4
20260506123801 5 74 8.0 14.5 0.13 0.74 0.74 94 1009.2
20260506123259 5 95 6.4 12.9 0.13 0.74 0.74 95 1009.3
20260506122756 6 85 8.0 9.7 0.05 0.71 0.71 95 1009.4
20260506122253 5 72 4.8 8.0 0.05 0.71 0.71 95 1009.5
20260506121751 5 68 12.9 12.9 0.05 0.71 0.71 95 1009.5
20260506121248 5 94 4.8 6.4 0.13 0.71 0.71 95 1009.3
20260506120745 5 87 6.4 8.0 0.13 0.69 0.69 95 1009.3
20260506120243 6 78 6.4 6.4 0.13 0.69 0.69 95 1009.6
20260506115740 6 80 4.8 11.3 0.13 0.66 0.66 95 1009.7
20260506115238 6 72 6.4 8.0 0.13 0.66 0.66 95 1009.6
20260506114736 6 52 6.4 14.5 0.13 0.66 0.66 95 1009.8
20260506114233 5 92 6.4 9.7 0.05 0.64 0.64 94 1009.7
20260506113731 5 47 8.0 9.7 0.05 0.64 0.64 94 1010.0
20260506113229 5 39 8.0 8.0 0.13 0.64 0.64 94 1009.9
20260506112725 5 42 6.4 9.7 0.05 0.61 0.61 94 1009.9
20260506112223 5 55 6.4 8.0 0.05 0.61 0.61 94 1010.0
20260506111720 5 41 4.8 6.4 0.13 0.61 0.61 93 1009.9
20260506111218 5 26 4.8 8.0 0.23 0.61 0.61 93 1009.7
20260506110714 5 60 6.4 9.7 0.23 0.58 0.58 93 1010.0
20260506110212 5 55 6.4 9.7 0.18 0.56 0.56 93 1009.7
20260506105708 5 45 8.0 9.7 0.23 0.56 0.56 94 1009.9
20260506105206 5 72 8.0 11.3 0.18 0.53 0.53 95 1010.1
20260506104704 6 54 3.2 4.8 0.18 0.51 0.51 95 1009.9
20260506104201 6 24 1.6 3.2 0.18 0.48 0.48 95 1009.7
20260506103658 6 42 3.2 6.4 0.18 0.46 0.46 95 1009.8
20260506103155 6 30 3.2 4.8 0.23 0.46 0.46 95 1009.7
20260506102653 6 57 8.0 11.3 0.23 0.43 0.43 95 1009.5
20260506102150 6 68 4.8 6.4 0.23 0.43 0.43 95 1009.5
20260506101647 6 41 3.2 6.4 0.23 0.41 0.41 95 1009.7
20260506101144 6 29 4.8 6.4 0.18 0.38 0.38 95 1009.7
20260506100642 6 31 9.7 9.7 0.13 0.36 0.36 95 1009.4
20260506100140 6 41 8.0 8.0 0.13 0.36 0.36 95 1008.9
20260506095638 6 41 6.4 6.4 0.13 0.33 0.33 95 1009.1
20260506095134 6 26 4.8 4.8 0.18 0.33 0.33 95 1009.2
20260506094632 6 55 3.2 3.2 0.13 0.30 0.30 95 1009.2
20260506094130 6 63 3.2 3.2 0.18 0.30 0.30 94 1008.9
20260506093628 6 36 4.8 4.8 0.18 0.28 0.28 94 1008.9
20260506093125 6 83 3.2 4.8 0.18 0.28 0.28 94 1008.9
20260506092623 6 65 3.2 4.8 0.13 0.25 0.25 94 1009.3
20260506092119 6 32 3.2 4.8 0.13 0.23 0.23 94 1009.6
20260506091618 6 41 6.4 8.0 0.13 0.23 0.23 94 1009.5
20260506091115 6 25 6.4 6.4 0.13 0.23 0.23 94 1009.4
20260506090613 6 27 1.6 3.2 0.05 0.20 0.20 94 1009.5
20260506090109 6 44 0.0 1.6 0.00 0.20 0.20 94 1009.8
20260506085606 6 193 0.0 1.6 0.05 0.20 0.20 94 1009.7
20260506085102 6 217 4.8 4.8 0.05 0.20 0.20 94 1009.8
20260506084559 6 227 0.0 3.2 0.00 0.18 0.18 94 1009.8
20260506084055 6 55 0.0 1.6 0.00 0.18 0.18 94 1009.4
20260506083552 6 55 0.0 3.2 0.00 0.18 0.18 94 1009.5
20260506083050 6 31 0.0 1.6 0.00 0.18 0.18 94 1009.5
20260506082546 6 174 0.0 3.2 0.00 0.18 0.18 94 1009.3
20260506082042 6 135 1.6 1.6 0.00 0.18 0.18 94 1009.3
20260506081540 6 162 1.6 3.2 0.00 0.18 0.18 94 1009.2
20260506081037 6 193 3.2 3.2 0.00 0.18 0.18 94 1009.5
20260506080535 6 193 0.0 4.8 0.00 0.18 0.18 94 1009.4
20260506073519 6 245 0.0 1.6 0.00 0.18 0.18 94 1009.6
20260506073016 6 288 0.0 1.6 0.00 0.18 0.18 94 1009.6
20260506072513 6 189 0.0 0.0 0.00 0.18 0.18 94 1009.5
20260506072010 6 251 3.2 4.8 0.05 0.18 0.18 94 1009.4
20260506071508 6 251 3.2 4.8 0.00 0.18 0.18 94 1009.4
20260506071005 6 251 3.2 4.8 0.00 0.18 0.18 94 1009.3
20260506070502 6 251 3.2 4.8 0.05 0.18 0.18 94 1009.1
20260506062439 7 286 3.2 3.2 0.13 0.15 0.15 94 1009.8
20260506061935 7 266 1.6 8.0 0.13 0.13 0.13 93 1010.0
20260506061432 7 11 0.0 6.4 0.13 0.13 0.13 93 1010.0
20260506060930 7 339 0.0 3.2 0.05 0.10 0.10 93 1009.8
20260506060428 7 304 0.0 4.8 0.05 0.10 0.10 93 1009.9
20260506051400 7 290 3.2 6.4 0.00 0.05 0.05 92 1009.4
20260506050857 7 249 6.4 8.0 0.00 0.05 0.05 91 1009.6
20260506050355 7 220 11.3 11.3 0.00 0.05 0.05 92 1009.6
20260506044845 7 251 3.2 3.2 0.05 0.05 0.05 93 1009.7
20260506044343 7 276 1.6 8.0 0.05 0.05 0.05 93 1009.5
20260506043840 7 204 3.2 8.0 0.05 0.05 0.05 92 1009.3
20260506043337 7 246 3.2 9.7 0.13 0.05 0.05 92 1009.6
20260506042835 7 230 3.2 12.9 0.13 0.03 0.03 92 1009.5
20260506042334 7 250 3.2 11.3 0.05 0.03 0.03 92 1009.6
20260506041832 7 235 8.0 11.3 0.05 0.00 0.00 92 1009.8
20260506041329 7 251 4.8 9.7 0.00 0.00 0.00 92 1009.7
20260506040826 7 256 8.0 9.7 0.00 0.00 0.00 92 1009.6
20260506040323 7 337 3.2 6.4 0.05 0.00 0.00 93 1009.7
20260506035820 7 271 4.8 14.5 0.05 0.91 0.91 93 1009.8
20260506035317 7 226 9.7 12.9 0.05 0.91 0.91 93 1009.6
20260506034814 7 251 4.8 14.5 0.13 0.91 0.91 93 1009.4
20260506034311 7 239 8.0 11.3 0.05 0.89 0.89 93 1009.3
20260506033808 7 226 6.4 11.3 0.13 0.89 0.89 93 1009.3
20260506033305 7 238 8.0 9.7 0.18 0.89 0.89 92 1009.3
20260506032802 7 274 3.2 6.4 0.13 0.86 0.86 92 1009.3
20260506032259 7 264 1.6 8.0 0.13 0.86 0.86 91 1009.4
20260506031755 7 233 6.4 16.1 0.13 0.86 0.86 91 1009.2
20260506031253 8 241 6.4 6.4 0.13 0.84 0.84 91 1009.2
20260506030751 8 230 4.8 8.0 0.05 0.84 0.84 91 1009.2
20260506030248 8 282 6.4 6.4 0.00 0.81 0.81 92 1009.1
20260506025745 8 172 4.8 14.5 0.05 0.81 0.81 92 1009.2
20260506025241 8 172 4.8 14.5 0.05 0.81 0.81 92 1008.7
20260506024738 8 88 0.0 3.2 0.00 0.81 0.81 92 1008.8
20260506024235 8 200 4.8 6.4 0.00 0.81 0.81 92 1008.8
20260506023731 8 212 6.4 16.1 0.05 0.81 0.81 92 1008.6
20260506023229 8 265 3.2 16.1 0.00 0.81 0.81 93 1008.7
20260506022725 8 226 9.7 16.1 0.05 0.81 0.81 93 1008.6
20260506022223 8 231 8.0 12.9 0.13 0.81 0.81 93 1008.7
20260506021721 8 219 14.5 17.7 0.18 0.79 0.79 93 1008.7